AO-07 1 07530U 74089B 23075.22174955 -.00000011 00000-0 22249-3 0 9990 2 07530 101.9413 61.2938 0011919 240.9462 189.4685 12.53662277211526 UO-11 1 14781U 84021B 23075.86296075 .00002687 00000-0 32480-3 0 9999 2 14781 97.6488 56.4393 0009346 136.6948 223.5003 14.84494457101449 AO-16 1 20439U 90005D 23075.47234649 .00000489 00000-0 19543-3 0 9994 2 20439 98.8780 63.3545 0011815 112.8274 56.6015 14.33044567731626 LO-19 1 20442U 90005G 23075.74008918 .00000451 00000-0 18066-3 0 9994 2 20442 98.8346 50.3298 0012896 89.8106 270.4555 14.33198543732165 HUBBLE 1 20580U 90037B 23075.58800869 .00006719 00000-0 36688-3 0 9992 2 20580 28.4690 163.7670 0003107 100.7805 28.9712 15.12369956607423 MET-2/21 1 22782U 93055A 23075.35687676 .00000101 00000-0 78238-4 0 9992 2 22782 82.5518 158.4493 0021045 306.3326 121.9151 13.83876441491617 AO-27 1 22825U 93061C 23075.86670885 .00000240 00000-0 11043-3 0 9991 2 22825 98.8544 117.2144 0008026 344.7769 15.3170 14.30265615537369 IO-26 1 22826U 93061D 23075.82332769 .00000277 00000-0 12381-3 0 9990 2 22826 98.8490 117.0360 0008316 329.6283 30.4416 14.30621647537602 FO-29 1 24278U 96046B 23075.46677735 .00000043 00000-0 82683-4 0 9998 2 24278 98.5219 66.6858 0349269 297.5254 59.0798 13.53138352312395 NOAA-15 1 25338U 98030A 23075.83786060 .00000341 00000-0 16040-3 0 9998 2 25338 98.6173 106.4290 0009748 218.1172 141.9319 14.26268691292094 GO-32 1 25397U 98043D 23075.46258493 .00000269 00000-0 13735-3 0 9997 2 25397 98.8576 32.1765 0002215 63.2063 296.9341 14.23839794282135 ISS 1 25544U 98067A 23075.87043874 .00021660 00000-0 39718-3 0 9994 2 25544 51.6402 65.8762 0006024 98.8281 339.9669 15.49206000387473 NO-44 1 26931U 01043C 23075.44723361 .00000489 00000-0 21753-3 0 9998 2 26931 67.0500 76.2748 0006815 283.2943 76.7398 14.30854536120312 SO-50 1 27607U 02058C 23075.75330632 .00003395 00000-0 47806-3 0 9991 2 27607 64.5557 188.2478 0076272 242.9459 116.3847 14.76948955 88782 CO-55 1 27844U 03031E 23075.84054904 .00000753 00000-0 35551-3 0 9990 2 27844 98.6811 84.4434 0010525 39.0145 321.1790 14.22680692 22638 CO-57 1 27848U 03031J 23075.46845700 .00000682 00000-0 32711-3 0 9990 2 27848 98.6849 84.5260 0010630 53.7626 306.4533 14.22204404 22325 RS-22 1 27939U 03042A 23075.90950822 .00002865 00000-0 50733-3 0 9993 2 27939 98.2253 222.2728 0013465 70.7450 289.5225 14.68057270 41006 NOAA-18 1 28654U 05018A 23075.79476289 .00000337 00000-0 20480-3 0 9998 2 28654 98.9164 150.6141 0013216 281.5583 78.4105 14.12888824918523 CO-58 1 28895U 05043F 23075.82801520 .00003037 00000-0 57177-3 0 9990 2 28895 98.1366 208.7009 0016206 7.2350 352.9084 14.65228455927512 CO-65 1 32785U 08021C 23075.50600776 .00007016 00000-0 70707-3 0 9992 2 32785 97.6953 43.5579 0014014 56.5849 303.6708 14.91367517807002 AAUSAT2 1 32788U 08021F 23075.47011601 .00015930 00000-0 12301-2 0 9993 2 32788 97.5574 57.1345 0004999 325.8146 34.2756 15.01617671809180 DO-64 1 32789U 08021G 23075.85662914 .00048679 00000-0 18591-2 0 9998 2 32789 97.3164 98.5969 0010432 96.5020 263.7407 15.26421408813351 CO-66 1 32791U 08021J 23075.44048771 .00012371 00000-0 11244-2 0 9993 2 32791 97.6466 48.7615 0012660 12.0624 348.0897 14.95315793807879 RS-30 1 32953U 08025A 23075.89186839 .00000024 00000-0 10000-3 0 9996 2 32953 82.5086 14.4951 0020334 27.9784 332.2389 12.43120443672184 PRISM 1 33493U 09002B 23075.46620524 .00016013 00000-0 11545-2 0 9998 2 33493 98.2518 83.6243 0016718 5.5302 354.6103 15.04131067769799 NOAA-19 1 33591U 09005A 23075.96943481 .00000322 00000-0 19854-3 0 9993 2 33591 99.1131 120.3724 0014605 139.8846 220.3406 14.12710868726922 SRMSAT 1 37841U 11058D 23075.28088031 .00000620 00000-0 19557-3 0 9993 2 37841 19.9727 51.7222 0012086 91.0850 297.2567 14.10853936589672 HRBE 1 37855U 11061F 23075.30516973 .00048092 00000-0 17010-2 0 9992 2 37855 101.7045 345.3909 0130577 324.0138 35.2342 15.21222194622889 RS-40 1 38735U 12041C 23075.80192549 .00000007 00000-0 -23293-4 0 9990 2 38735 82.4717 95.7061 0018095 135.2912 224.9628 12.42591818482346 ZACUBE-1 1 39417U 13066B 23075.42223540 .00006692 00000-0 78673-3 0 9996 2 39417 97.6745 40.4532 0054164 231.3131 128.3233 14.84127206503438 Delfi-N3xt 1 39428U 13066N 23075.59961754 .00007360 00000-0 10797-2 0 9997 2 39428 97.8304 3.8089 0114314 126.0025 235.1845 14.71412424498691 GOMX-1 1 39430U 13066Q 23075.76722853 .00004942 00000-0 86964-3 0 9997 2 39430 97.7890 332.2703 0145149 265.6234 92.8352 14.61339091496042 LO-74 1 39440U 13066AA 23075.55550076 .00007508 00000-0 98301-3 0 9990 2 39440 97.7623 27.4329 0075558 329.8312 29.8558 14.78657248500465 AO-73 1 39444U 13066AE 23075.41788865 .00008062 00000-0 91372-3 0 9995 2 39444 97.6611 42.9264 0052819 217.0369 142.7196 14.85610567501869 SPROUT 1 39770U 14029E 23075.85221321 .00035286 00000-0 29938-2 0 9990 2 39770 97.9611 200.8090 0008316 259.5727 100.4505 14.97799263478310 DTUSAT-2 1 40030U 14033W 23075.36756281 .00009916 00000-0 98165-3 0 9990 2 40030 97.9594 14.8307 0009392 232.7349 127.3013 14.92026931474153 EO-80 1 40032U 14033Y 23075.34345780 .00009053 00000-0 89684-3 0 9996 2 40032 97.9597 14.8237 0009289 234.6355 125.3996 14.92024420474129 HODOYOSHI-1 1 40299U 14070B 23075.86802041 .00017085 00000-0 56596-3 0 9997 2 40299 97.2055 141.0270 0009934 242.9798 205.8809 15.31311390464671 FIREBIRD FU3 1 40377U 15003B 23075.77008593 .00084762 00000-0 13835-2 0 9995 2 40377 99.0758 9.0847 0066906 169.9958 190.2638 15.49719751450235 FIREBIRD FU4 1 40378U 15003C 23075.77708887 .00084191 00000-0 13693-2 0 9997 2 40378 99.0765 9.3873 0067077 169.2689 191.0007 15.49806206450242 GRIFEX 1 40379U 15003D 23075.29600772 .00048836 00000-0 12996-2 0 9990 2 40379 99.0787 350.2766 0092367 229.0395 130.2824 15.33757017449108 XW-2A 1 40903U 15049E 23075.82625567 .00259080 00000-0 10997-2 0 9995 2 40903 97.1293 142.6757 0006877 184.6343 287.7558 15.84616960421799 XW-2C 1 40906U 15049H 23075.86566616 .00019657 00000-0 81565-3 0 9995 2 40906 97.4976 82.8477 0014395 121.8368 323.3867 15.23800032414320 XW-2D 1 40907U 15049J 23075.86276935 .00023251 00000-0 92406-3 0 9999 2 40907 97.4964 83.1611 0013703 115.9248 5.0214 15.25223209414399 LILACSAT-2 1 40908U 15049K 23076.01894696 .00009889 00000-0 48269-3 0 9997 2 40908 97.5264 79.4145 0015614 144.9265 281.6946 15.18378508413802 XW-2E 1 40909U 15049L 23075.99383230 .00040517 00000-0 12853-2 0 9993 2 40909 97.4609 88.7675 0012455 92.3968 323.0920 15.32498774414990 XW-2F 1 40910U 15049M 23075.83600900 .00040267 00000-0 13011-2 0 9993 2 40910 97.4702 87.8210 0013518 94.5169 29.0442 15.31896095414729 XW-2B 1 40911U 15049N 23075.84644874 .00022892 00000-0 91481-3 0 9995 2 40911 97.4946 83.6351 0013715 117.4306 3.7458 15.25042308414276 DCBB 1 40912U 15049P 23076.03203668 .00048724 00000-0 13580-2 0 9995 2 40912 97.4273 92.4422 0012344 63.6186 320.9853 15.36545002415424 IO-86 1 40931U 15052B 23075.05277511 .00001938 00000-0 17876-3 0 9998 2 40931 5.9970 31.3109 0012989 51.3345 308.7956 14.77099262403569 ATHENOXAT-1 1 41168U 15077C 23075.61672737 .00105352 00000-0 26380-2 0 9993 2 41168 14.9915 216.8258 0008036 127.8129 325.5378 15.38196670401958 ChubuSat-2 1 41338U 16012B 23075.40311391 .00007646 00000-0 54597-3 0 9994 2 41338 31.0030 90.6498 0012437 332.0131 27.9836 15.03123564388402 ChubuSat-3 1 41339U 16012C 23075.75344587 .00006962 00000-0 49734-3 0 9993 2 41339 31.0099 85.3953 0012769 341.2168 183.3943 15.03064043388452 Horyu-4 1 41340U 16012D 23075.07718229 .00012811 00000-0 84282-3 0 9995 2 41340 31.0049 61.5665 0011203 27.1029 333.0192 15.06325831388664 e-st@r-II 1 41459U 16025D 23075.96837896 .00040120 00000-0 13361-2 0 9993 2 41459 98.1925 268.2886 0119133 59.1661 302.1249 15.24355552378821 AAUSAT4 1 41460U 16025E 23075.81537672 .00093978 00000-0 20909-2 0 9993 2 41460 98.1732 277.9403 0085229 21.2829 349.6851 15.39478073379483 LO-87 1 41557U 16033B 23076.02171365 .00066764 00000-0 12543-2 0 9994 2 41557 97.3831 181.0661 0008586 124.5271 320.8801 15.48328706379316 NuSat2 1 41558U 16033C 23075.86535096 .00073371 00000-0 12798-2 0 9995 2 41558 97.4100 188.2492 0007578 113.3561 39.8011 15.50431953379600 Lapan A3 1 41603U 16040E 23075.86111238 .00004668 00000-0 20795-3 0 9992 2 41603 97.1772 105.6734 0011077 284.0498 249.3193 15.21851220373445 Pratham 1 41783U 16059A 23075.33610410 .00001596 00000-0 31252-3 0 9996 2 41783 97.8809 110.5394 0033891 36.6173 323.7337 14.63758819345393 TY-1 1 41844U 16066D 23076.00611524 .00065001 00000-0 14405-2 0 9995 2 41844 97.3789 93.3816 0011279 44.6297 39.1617 15.43470012353418 CAS-2T 1 41847U 16066G 23075.51976109 .00003270 00000-0 49134-3 0 9994 2 41847 98.5137 144.4970 0362034 115.3502 248.5638 14.39374507333472 EO-88 1 42017U 17008BX 23075.92117197 .00088474 00000-0 13528-2 0 9996 2 42017 97.2264 144.9690 0001822 333.4896 26.6265 15.54087234339032 CAS-4B 1 42759U 17034B 23075.87526576 .00013161 00000-0 69257-3 0 9999 2 42759 43.0170 268.1725 0011333 229.5388 266.2930 15.15488591317627 CAS-4A 1 42761U 17034D 23075.89529975 .00014134 00000-0 74103-3 0 9997 2 42761 43.0172 266.6277 0011534 233.4008 269.3546 15.15569586317635 NIUSat 1 42766U 17036B 23075.09103765 .00034650 00000-0 10435-2 0 9993 2 42766 97.1712 108.7733 0013184 82.4537 277.8204 15.34177549318311 Aalto 1 1 42775U 17036L 23075.82091464 .00022285 00000-0 72501-3 0 9990 2 42775 97.1661 108.7040 0012720 81.4290 278.8393 15.31806469318367 URSA MAIOR 1 42776U 17036M 23075.52483694 .00025629 00000-0 79976-3 0 9996 2 42776 97.1671 109.5204 0012122 80.6299 279.6314 15.33121559318371 Max Valier Sat 1 42778U 17036P 23075.83020370 .00023624 00000-0 70955-3 0 9991 2 42778 97.1714 113.0695 0010728 81.6741 278.5719 15.34367534318540 Pegasus 1 42784U 17036V 23075.83486083 .00041043 00000-0 10390-2 0 9996 2 42784 97.1632 114.8102 0009440 77.5870 282.6432 15.39588231318737 NUDATSat 1 42787U 17036Y 23075.86435693 .00161527 00000-0 20966-2 0 9993 2 42787 97.1604 122.4278 0005172 71.8089 288.3757 15.58268665319051 SUCHAI 1 1 42788U 17036Z 23075.07150782 .00068991 00000-0 14658-2 0 9992 2 42788 97.1616 116.8270 0007786 75.6960 284.5153 15.44738613318863 SKCUBE 1 42789U 17036AA 23075.10410688 .00054599 00000-0 12691-2 0 9995 2 42789 97.1624 115.8015 0008440 76.8193 283.3996 15.42118648318723 VZLUSAT 1 1 42790U 17036AB 23075.09682062 .00147667 00000-0 20060-2 0 9990 2 42790 97.1590 121.4926 0004642 67.8199 292.3548 15.57094936319078 VENTA 1 1 42791U 17036AC 23075.41057176 .00054749 00000-0 13779-2 0 9996 2 42791 97.1638 115.5387 0008705 77.0045 283.2173 15.39705426318721 Robusta 1B 1 42792U 17036AD 23075.09538683 .00064896 00000-0 14159-2 0 9995 2 42792 97.1609 116.7053 0007682 76.7196 283.4909 15.43970937318791 D-SAT 1 42794U 17036AF 23075.78458892 .00006332 00000-0 51406-3 0 9994 2 42794 97.4621 72.2243 0116906 252.0899 106.7547 14.94707944312156 TechnoSat 1 42829U 17042E 23075.79023413 .00004534 00000-0 43996-3 0 9995 2 42829 97.3969 278.7493 0013767 169.3589 190.7925 14.93040857308707 AO-91 1 43017U 17073E 23075.15903584 .00016826 00000-0 11945-2 0 9990 2 43017 97.6441 323.1911 0238893 16.5236 344.3595 14.84556507287379 PICSAT 1 43132U 18004X 23075.18885524 .00068772 00000-0 14318-2 0 9993 2 43132 97.3391 156.5456 0006265 111.4097 248.7821 15.45348810288123 AO-92 1 43137U 18004AC 23075.19060641 .00050190 00000-0 12842-2 0 9999 2 43137 97.3360 153.8054 0007532 118.1255 242.0753 15.39231658287973 TianYi 2 1 43155U 18008A 23076.00501355 .00027112 00000-0 11932-2 0 9993 2 43155 97.3128 130.9148 0012705 272.4088 172.9466 15.21753710284610 Zhou Enlai 1 43156U 18008B 23076.03869484 .00030021 00000-0 13143-2 0 9996 2 43156 97.3178 130.9518 0010215 270.9289 175.3763 15.21937536284546 TianYi 6 1 43158U 18008D 23075.62815317 .00023617 00000-0 11037-2 0 9991 2 43158 97.3166 127.8615 0010172 279.9660 238.8948 15.19744084284341 S-Net D 1 43186U 18014G 23075.53237081 .00006401 00000-0 52371-3 0 9994 2 43186 97.6400 341.0243 0011833 107.9682 252.2832 14.99618050279663 S-Net B 1 43187U 18014H 23075.53302064 .00006387 00000-0 52267-3 0 9996 2 43187 97.6399 340.9617 0011951 107.6047 252.6483 14.99613130279667 S-Net A 1 43188U 18014J 23075.53328130 .00006374 00000-0 52153-3 0 9999 2 43188 97.6402 341.0426 0011986 107.7507 252.5025 14.99614316279661 S-Net C 1 43189U 18014K 23075.26786808 .00007895 00000-0 64482-3 0 9997 2 43189 97.6397 340.6855 0012250 108.0309 252.2250 14.99605297278175 Shaonian Xing 1 43199U 18015H 23075.93253931 .00110734 00000-0 17090-2 0 9998 2 43199 97.5377 229.2958 0008260 159.6746 331.5251 15.53711609285392 CubeBel-1 1 43666U 18083E 23075.87388369 .00038999 00000-0 12527-2 0 9991 2 43666 97.3937 107.2771 0012721 93.7199 79.8348 15.32103488243037 Changshagaoxin 1 43669U 18083H 23075.85867590 .00034673 00000-0 12083-2 0 9992 2 43669 97.3917 102.3280 0010196 93.2163 78.7857 15.29520090242804 Ten-Koh 1 43677U 18084G 23075.37690628 .00005665 00000-0 55756-3 0 9999 2 43677 97.9956 213.6893 0016291 95.6316 264.6760 14.92392535238215 PO-101 1 43678U 18084H 23075.91720054 .00003535 00000-0 34531-3 0 9999 2 43678 98.0046 218.1326 0010634 103.9221 256.3155 14.93019300238495 QO-100 1 43700U 18090A 23075.27688362 .00000137 00000-0 00000-0 0 9992 2 43700 0.0189 157.4527 0001066 216.6665 284.9356 1.00272746 15754 Reaktor Hello World 1 43743U 18096AA 23075.46747069 .00058728 00000-0 11433-2 0 9999 2 43743 97.3247 160.6275 0012003 159.7413 200.4316 15.47296438239782 MinXSS-2 1 43758U 18099A 23075.18901798 .00013278 00000-0 10665-2 0 9995 2 43758 97.5871 141.3987 0016976 78.7899 281.5232 15.00050979233799 AO-95 1 43770U 18099N 23075.39275324 .00011378 00000-0 94802-3 0 9996 2 43770 97.5841 139.4481 0015466 85.1932 275.1056 14.98694896233702 RANGE-B 1 43772U 18099Q 23075.16053331 .00013554 00000-0 10902-2 0 9991 2 43772 97.5958 141.6808 0011652 67.9642 292.2818 15.00051964233714 RANGE-A 1 43773U 18099R 23075.16079965 .00007108 00000-0 61080-3 0 9995 2 43773 97.5752 137.5774 0013485 73.7669 286.5037 14.97660740233636 MOVE-II 1 43780U 18099Y 23075.41709362 .00017591 00000-0 13573-2 0 9992 2 43780 97.5800 141.5087 0011761 105.6142 254.6382 15.01582263233803 SNUSat 2 1 43782U 18099AA 23075.15323104 .00008947 00000-0 74769-3 0 9991 2 43782 97.5841 139.7358 0012587 68.7274 291.5292 14.98677731233699 SnugLite 1 43784U 18099AC 23075.13713461 .00011084 00000-0 91266-3 0 9997 2 43784 97.5828 139.3489 0016026 76.7840 283.5170 14.99150506233724 ITASat 1 1 43786U 18099AE 23075.91343075 .00006834 00000-0 57419-3 0 9994 2 43786 97.5858 140.9874 0015266 77.6092 282.6839 14.98528993233820 EAGLET 1 1 43790U 18099AJ 23075.40039232 .00007547 00000-0 63698-3 0 9998 2 43790 97.5873 141.0113 0014729 81.1093 279.1797 14.98324390233485 ESEO 1 43792U 18099AL 23075.81139063 .00002844 00000-0 25049-3 0 9991 2 43792 97.5818 140.1355 0014464 77.0663 283.2174 14.97167091233563 CSIM 1 43793U 18099AM 23075.14180440 .00018981 00000-0 14422-2 0 9994 2 43793 97.5832 142.4260 0016998 83.1965 277.1193 15.02089014233600 Astrocast 0.1 1 43798U 18099AS 23075.12944596 .00015022 00000-0 11808-2 0 9995 2 43798 97.5908 141.8449 0015386 53.3849 306.8788 15.00868089233808 JO-97 1 43803U 18099AX 23075.40676502 .00011702 00000-0 95252-3 0 9999 2 43803 97.5867 140.4001 0016023 73.1481 287.1499 14.99580660233789 Suomi 100 1 43804U 18099AY 23075.11805173 .00010279 00000-0 84370-3 0 9993 2 43804 97.5816 139.9610 0015664 80.3021 279.9971 14.99296794233745 Al Farabi 2 1 43805U 18099AZ 23075.15470049 .00012872 00000-0 10201-2 0 9990 2 43805 97.5885 140.9133 0011037 77.0588 283.1863 15.00638484233796 CHOMPTT 1 43855U 18104G 23075.46228243 .00031399 00000-0 91155-3 0 9996 2 43855 85.0309 228.9837 0012934 309.2923 50.7178 15.35271094236329 ISAT 1 43879U 18111D 23075.27876621 .00014280 00000-0 11226-2 0 9998 2 43879 97.6498 341.0780 0015019 100.3906 259.9012 15.00882385230399 UWE-4 1 43880U 18111E 23075.26441608 .00012812 00000-0 10087-2 0 9995 2 43880 97.6468 341.9224 0017131 122.9775 237.3098 15.00825770230424 Sparrow 1 43881U 18111F 23075.24022962 .00013201 00000-0 10296-2 0 9997 2 43881 97.6526 342.3089 0013822 144.0993 216.1162 15.01218833230439 Lume 1 1 43908U 18111AJ 23075.62912966 .00037141 00000-0 92472-3 0 9997 2 43908 97.1552 320.5784 0014773 168.2199 191.9396 15.40050148235110 FO-99 1 43937U 19003F 23075.53505758 .00048418 00000-0 10905-2 0 9996 2 43937 97.1012 104.4711 0013559 249.1996 110.7800 15.43032945231716 AstroCast 0.2 1 44083U 19018F 23075.15417081 .00074240 00000-0 19091-2 0 9991 2 44083 97.2823 134.8117 0007744 228.2273 131.8312 15.38964966220050 AISTechSat 3 1 44103U 19018AB 23075.09467671 .00037815 00000-0 10845-2 0 9992 2 44103 97.2678 134.4814 0009190 239.9231 182.0936 15.35743895220199 AISat 1 1 44104U 19018AC 23075.25304180 .00032289 00000-0 71969-3 0 9991 2 44104 97.3744 165.1929 0044019 234.8360 124.8761 15.42479367221378 Prox-1 1 44339U 19036A 23075.20111310 .00013148 00000-0 27576-2 0 9994 2 44339 24.0009 275.1035 0010371 323.4079 36.5704 14.57980598198091 Move-IIb 1 44398U 19038N 23075.45853630 .00049615 00000-0 16408-2 0 9996 2 44398 97.6577 54.5423 0012511 257.7009 102.2831 15.31111624204439 SONATE 1 44400U 19038Q 23075.42494333 .00018724 00000-0 89237-3 0 9996 2 44400 97.6763 51.3581 0019152 274.9482 84.9566 15.19003012204140 BeeSat 9 1 44412U 19038AC 23075.65720362 .00030524 00000-0 12201-2 0 9996 2 44412 97.6683 53.6254 0013673 270.2564 89.7106 15.24976948204032 JAISAT-1 1 44419U 19038F 23075.43099349 .00037353 00000-0 14749-2 0 9999 2 44419 97.6684 54.4285 0012918 266.8639 93.1120 15.25350272204377 Taurus 1 1 44530U 19059C 23075.79247435 .00009825 00000-0 25924-2 0 9996 2 44530 98.5468 182.2769 0012101 18.0870 342.0696 14.49087629185253 Duchifat 3 1 44854U 19089C 23075.90625005 .00014321 00000-0 10063-2 0 9999 2 44854 36.9655 282.1241 0009498 291.9088 194.7515 15.04478303178922 OPS-SAT 1 44878U 19092F 23075.77394069 .00034479 00000-0 12207-2 0 9995 2 44878 97.4787 263.6571 0009938 107.0895 253.1434 15.29008364179641 TO-108 1 44881U 19093C 23075.95873605 .00002320 00000-0 29654-3 0 9993 2 44881 97.8664 155.9772 0015378 23.7059 336.4808 14.82273631175139 FloripaSat 1 1 44885U 19093G 23075.65715976 .00007971 00000-0 94051-3 0 9990 2 44885 97.8717 157.8914 0013651 29.8489 330.3487 14.84919322175218 RS-44 1 44909U 19096E 23075.42125004 .00000037 00000-0 99890-4 0 9995 2 44909 82.5208 49.5763 0218351 44.0808 317.7470 12.79719082150293 BY70-2 1 45857U 20042B 23075.85267477 .00032079 00000-0 36215-2 0 9990 2 45857 97.9292 155.6886 0008550 306.0681 54.0154 14.86424766145805 UPMSat 2 1 46276U 20061E 23075.42332831 .00014750 00000-0 65552-3 0 9990 2 46276 97.3566 145.0111 0000386 35.7508 324.3753 15.21618511140172 AmicalSat 1 46287U 20061R 23075.18437047 .00022367 00000-0 11196-2 0 9997 2 46287 97.4111 143.5686 0003170 76.3175 283.8411 15.17406016139590 SALSAT 1 46495U 20068K 23075.37797671 .00009475 00000-0 64066-3 0 9998 2 46495 97.7610 22.5244 0018075 77.1966 283.1279 15.06634239135095 BY70-3 1 46839U 20079N 23075.98435244 .00503637 00000-0 24503-2 0 9994 2 46839 97.1544 152.9570 0002360 268.5179 216.7911 15.81093871132512 CAPE 3 1 47309U 21002A 23075.67155767 .00038176 00000-0 11160-2 0 9995 2 47309 60.6798 55.2179 0033258 127.9975 232.4129 15.34505497120055 AO-109 1 47311U 21002C 23075.51429580 .00032476 00000-0 98088-3 0 9990 2 47311 60.6826 53.4682 0031577 124.5875 235.8203 15.33601856120047 MiTEE 1 1 47314U 21002F 23075.52979330 .00131718 00000-0 20021-2 0 9997 2 47314 60.6746 32.4614 0026633 113.6169 246.7732 15.53403138120420 ExoCube 2 1 47319U 21002L 23075.34118892 .00040241 00000-0 12358-2 0 9994 2 47319 60.6810 55.9258 0032124 126.5207 233.8851 15.32967732119956 UVSQ-SAT 1 47438U 21006AB 23075.58347476 .00020200 00000-0 90541-3 0 9992 2 47438 97.3976 134.1680 0011134 54.1119 306.1149 15.21206242118552 YUSAT 1 1 47439U 21006AC 23075.14345963 .00032492 00000-0 13862-2 0 9990 2 47439 97.3987 134.1945 0010543 54.7102 305.5119 15.22796339118518 SOMP 2b 1 47445U 21006AJ 23075.13575746 .00025284 00000-0 11527-2 0 9997 2 47445 97.3949 133.1142 0011150 60.0752 300.1589 15.20575702118460 IDEASSat 1 47458U 21006AX 23075.15274445 .00023440 00000-0 10809-2 0 9999 2 47458 97.4043 133.8644 0010476 59.5451 300.6818 15.20204133118459 CubeSX-Sirius-HSE 1 47951U 21022V 23075.94143731 .00016740 00000-0 99076-3 0 9994 2 47951 97.5068 334.8797 0018165 296.6856 192.0620 15.11364635109080 CubeSX-HSE 1 47952U 21022W 23075.97294278 .00017058 00000-0 10078-2 0 9998 2 47952 97.5064 334.9480 0017824 295.2308 129.3244 15.11429827109096 KSU-Cubesat 1 47954U 21022Y 23075.26442999 .00021190 00000-0 12302-2 0 9991 2 47954 97.5074 334.5190 0017312 297.0024 62.9439 15.12022039108722 GRBAlpha 1 47959U 21022AD 23075.76962425 .00017002 00000-0 10030-2 0 9995 2 47959 97.5079 334.8165 0017837 297.4439 149.8575 15.11485260107883 Orbicraft-Zorkiy 1 47960U 21022AE 23075.89218005 .00018329 00000-0 10663-2 0 9994 2 47960 97.5096 335.2495 0017539 296.1226 131.4394 15.11974494108603 STECCO 1 47962U 21022AG 23075.81589520 .00029517 00000-0 15213-2 0 9998 2 47962 97.5072 336.8641 0011804 288.0809 145.9490 15.16265102108022 DO-111 1 47963U 21022AH 23075.20993749 .00143708 00000-0 42945-2 0 9995 2 47963 97.5099 340.5873 0006351 266.9862 93.0654 15.33982022108229 MO-110 1 47964U 21022AJ 23075.30237682 .00033154 00000-0 16772-2 0 9996 2 47964 97.5083 336.8365 0013742 283.5404 76.4298 15.16873055107972 FEES 1 48082U 21022AL 23075.23268855 .00053368 00000-0 24276-2 0 9993 2 48082 97.5080 337.3116 0009326 279.9493 80.0690 15.20491182107701 CSS 1 48274U 21035A 23075.87693920 .00036529 00000-0 39997-3 0 9992 2 48274 41.4758 358.9577 0001568 157.8055 271.0341 15.62543421107392 TUBIN 1 48900U 21059X 23075.79915813 .00014925 00000-0 74669-3 0 9994 2 48900 97.5828 209.0169 0009154 238.1235 264.8938 15.17484848 95152 IT-SPINS 1 49017U 21013G 23075.45427933 .00037110 00000-0 10462-2 0 9999 2 49017 51.5928 171.3356 0009225 341.6995 18.3654 15.36017977 95427 LEDSAT 1 49069U 21073D 23075.41640289 .00017269 00000-0 99237-3 0 9990 2 49069 97.4911 147.9476 0026074 82.1678 278.2512 15.12268181 86871 CUTE 1 49263U 21088D 23075.63897683 .00013055 00000-0 88130-3 0 9997 2 49263 97.5552 143.1240 0018247 213.9681 146.0380 15.06598092 80348 TeikyoSat 4 1 49396U 21102B 23075.33175787 .00003643 00000-0 28334-3 0 9994 2 49396 97.5294 130.1704 0016074 56.7604 303.5159 15.01781957 73832 Z-Sat 1 49399U 21102E 23075.96992736 .00005918 00000-0 42929-3 0 9990 2 49399 97.4976 131.8838 0022591 26.6152 333.6228 15.04080297 74027 KOSEN 1 1 49402U 21102H 23075.87893022 .00006530 00000-0 45463-3 0 9990 2 49402 97.4916 132.1638 0021595 18.4702 341.7304 15.05597245 74067 HO-113 1 50466U 21131B 23075.95975786 .00001213 00000-0 40925-3 0 9992 2 50466 98.5555 157.7934 0005308 67.7469 292.4280 14.38752960 64092 Tevel-3 1 50988U 22002E 23075.90354183 .00029255 00000-0 13147-2 0 9997 2 50988 97.4445 143.7127 0008780 189.4663 285.9738 15.21060455 64719 Tevel-8 1 50989U 22002F 23075.71817038 .00029289 00000-0 13188-2 0 9992 2 50989 97.4452 143.5761 0009245 189.5771 269.5344 15.20988963 64687 Tevel-5 1 50998U 22002Q 23075.89408900 .00030226 00000-0 13313-2 0 9998 2 50998 97.4439 143.9907 0010266 185.1182 292.9939 15.21728339 64737 Tevel-6 1 50999U 22002R 23075.89275465 .00030217 00000-0 13307-2 0 9990 2 50999 97.4440 143.9854 0010310 184.8402 293.3245 15.21734149 64733 Tevel-1 1 51013U 22002AF 23075.91072728 .00029188 00000-0 13131-2 0 9998 2 51013 97.4440 143.6755 0008710 189.1757 285.5887 15.21025226 64712 Grizu-263a 1 51025U 22002AT 23075.92756723 .00061108 00000-0 19883-2 0 9994 2 51025 97.4606 146.9967 0010629 190.3848 169.7176 15.31597902 64874 NO-116 1 51031U 22002AZ 23075.13968343 .00053497 00000-0 20882-2 0 9990 2 51031 97.4565 144.8930 0011215 194.5249 165.5668 15.25660887 64680 IRIS-A 1 51044U 22002BN 23075.15578140 .00017141 00000-0 86172-3 0 9999 2 51044 97.4452 142.1220 0008386 195.5988 164.4988 15.17286776 64548 Tevel-7 1 51062U 22002CG 23075.93070484 .00029359 00000-0 13212-2 0 9991 2 51062 97.4442 143.7625 0008907 189.6488 342.5955 15.21010756 64711 Tevel-4 1 51063U 22002CH 23075.91260251 .00029175 00000-0 13145-2 0 9994 2 51063 97.4449 143.7349 0008900 189.8143 224.6719 15.20973108 64711 Tevel-2 1 51069U 22002CP 23075.90538845 .00029195 00000-0 13120-2 0 9991 2 51069 97.4439 143.6889 0008860 189.7230 285.5364 15.21060871 64712 DELFI-PQ 1 51074U 22002CU 23075.19976429 .00059348 00000-0 21509-2 0 9995 2 51074 97.4697 146.7563 0011290 219.5636 140.4781 15.28089904 64762 SO-115 1 51080U 22002DA 23075.17279846 .00037643 00000-0 15479-2 0 9992 2 51080 97.4704 145.9499 0011434 222.0973 137.9387 15.24000826 64709 SO-114 1 51081U 22002DB 23075.95680516 .00026363 00000-0 10820-2 0 9991 2 51081 97.4703 146.6951 0011862 219.5744 140.4629 15.24139343 64820 OreSat0 1 52017U 22026K 23075.74420035 .00023903 00000-0 10629-2 0 9996 2 52017 97.5122 78.0866 0026079 52.5941 307.7663 15.21188930 55479 Planetum 1 1 52738U 22057G 23075.85432347 .00017583 00000-0 88506-3 0 9998 2 52738 97.5260 192.1099 0006693 310.0306 50.0339 15.17249867 44642 Foresail-1 1 52766U 22057AL 23075.89202568 .00016347 00000-0 82201-3 0 9996 2 52766 97.5372 192.9650 0011795 290.7777 186.2741 15.17259932 44679 SNUGLITE 2 1 52899U 22065F 23075.37132618 .00002905 00000-0 62817-3 0 9999 2 52899 98.0525 222.8883 0008823 141.8344 218.3482 14.58980307 37321 CTIM 1 52950U 22074G 23075.24341782 .00051673 00000-0 15110-2 0 9996 2 52950 45.0395 155.6575 0009860 326.4326 33.4868 15.34529375 39280 IO-117 1 53106U 22080B 23075.13340333 -.00000003 00000-0 00000+0 0 9997 2 53106 70.1817 352.0525 0008319 207.8404 152.1811 6.42557089 15774 SelfieSat 1 53951U 22057BA 23075.30662092 .00030412 00000-0 14884-2 0 9991 2 53951 97.5314 191.9589 0009067 303.2544 56.7821 15.18098490 44573 FO-118 1 54684U 22167C 23075.96791606 .00020032 00000-0 11856-2 0 9996 2 54684 97.5449 214.4214 0013773 291.4765 217.4244 15.11385263 14734 /EX